Flag for U.S.A. Weather past 2 weeks in Denver, Colorado, U.S.A.

Now
68 °F

Broken clouds.


Feels Like: 68 °F
Forecast: 58 / 78 °F
Wind: 6 mph from West

Location: Buckley Air Force Base

Current Time: Jul 29, 2014 at 9:45:46 AM

Latest Report: Jul 29, 2014 at 8:58 AM


Visibility: 10 mi

Pressure: 30.09 "Hg

Humidity: 68%

Dew point: 57 °F

Location of DenverLocation

Historic Weather in Denver — Graph

°F

Denver temperature yesterday

Maximum temperature yesterday: 83 °F (at 1:58 PM)
Minimum temperature yesterday: 60 °F (at 5:58 AM)
Average temperature yesterday: 69 °F

Past Weeks' High & Low Weather Summary

 TemperatureHumidityPressure
High93 °F (Jul 24, 3:58 PM)100% (Jul 15, 6:58 AM)30.20 "Hg (Jul 15, 6:58 AM)
Low55 °F (Jul 17, 12:58 AM)14% (Jul 20, 1:58 PM)29.78 "Hg (Jul 20, 12:58 AM)
Average72 °F55%29.97 "Hg
* Reported Jul 14 8:58 AM — Jul 29 8:58 AM, Denver, Weather by CustomWeather, © 2014

Note: Actual official high and low records may vary slightly from our data, if they occured in-between our weather recording intervals... More about our weather records

Advertising

Denver weather history for previous 24 hours

 ConditionsComfort  
Time TempWeatherWind HumidityBarometerVisibility
8:58 AM
Jul 29
68 °FBroken clouds.6 mph68%30.09 "Hg10 mi
7:58 AM66 °FPartly sunny.8 mph68%30.08 "Hg10 mi
6:58 AM60 °FPartly sunny.5 mph81%30.07 "Hg10 mi
5:58 AM60 °FPassing clouds.5 mph84%30.07 "Hg10 mi
4:58 AM61 °FPassing clouds.6 mph84%30.07 "Hg10 mi
3:58 AM62 °FPassing clouds.5 mph84%30.05 "Hg10 mi
2:58 AM61 °FPassing clouds.7 mph82%30.07 "Hg10 mi
1:58 AM62 °FPassing clouds.8 mph76%30.07 "Hg10 mi
12:58 AM63 °FPassing clouds.8 mph83%30.07 "Hg10 mi
11:58 PM
Jul 28
65 °FPassing clouds.10 mph78%30.08 "Hg10 mi
10:58 PM66 °FPassing clouds.10 mph78%30.10 "Hg10 mi
9:58 PM68 °FPassing clouds.12 mph75%30.11 "Hg10 mi
8:58 PM68 °FBroken clouds.9 mph58%30.10 "Hg10 mi
7:58 PM72 °FBroken clouds.13 mph50%30.07 "Hg10 mi
6:58 PM74 °FBroken clouds.13 mph56%30.07 "Hg10 mi
5:58 PM73 °FBroken clouds.14 mph65%30.11 "Hg10 mi
4:58 PM71 °FThundershowers. Partly sunny.15 mph74%30.12 "Hg7 mi
3:58 PM77 °FThunderstorms. Partly sunny.13 mph54%30.09 "Hg7 mi
1:58 PM83 °FBroken clouds.12 mph43%30.07 "Hg10 mi
1:02 PM80 °FBroken clouds.3 mph47%30.11 "Hg10 mi
11:58 AM76 °FBroken clouds.6 mph54%30.15 "Hg10 mi
9:58 AM71 °FBroken clouds.6 mph68%30.18 "Hg10 mi
Weather by CustomWeather, © 2014

See weather overviewHow to use our weather pages